Weather History for KALB - June, 2013

Change the Weather History Date:

Saturday, June 22, 2013

  Actual Average Record
Temperature  
Mean Temperature 75 °F 69 °F  
Max Temperature 84 °F 80 °F 95 °F (1954)
Min Temperature 65 °F 59 °F 37 °F (1940)
Degree Days  
Heating Degree Days 0 1  
Month to date heating degree days 55 47  
Since 1 June heating degree days 55 47  
Since 1 July heating degree days 6316 6675  
Cooling Degree Days 10 5  
Month to date cooling degree days 48 72  
Year to date cooling degree days 97 102  
Since 1 June cooling degree days 48 72  
Growing Degree Days 24 (Base 50)    
Moisture  
Dew Point 61 °F    
Average Humidity 64    
Maximum Humidity 81    
Minimum Humidity 47    
Precipitation  
Precipitation 0.00 in 0.12 in 1.52 in (2011)
Month to date precipitation 5.40 2.82  
Year to date precipitation 20.14 17.60  
Sea Level Pressure  
Sea Level Pressure 30.15 in    
Wind  
Wind Speed 8 mph (South)    
Max Wind Speed 15 mph    
Max Gust Speed 20 mph    
Visibility 10 miles    
Events      
T = Trace of Precipitation, MM = Missing Value Source: NWS Daily Summary

Daily Weather History Graph

Daily Weather History Graph

Search for Another Location

Airport or City:

Trip Planner

Search our weather history database for the weather conditions in past years. The results will help you decide how hot, cold, wet, or windy it might be!

Date:

Astronomy

Jun. 22, 2013 Rise Set
Actual Time 5:17 AM EDT 8:37 PM EDT
Civil Twilight 4:42 AM EDT 9:12 PM EDT
Nautical Twilight 3:56 AM EDT 9:57 PM EDT
Astronomical Twilight 3:00 AM EDT 10:54 PM EDT
Moon 7:47 PM EDT (6/22) 4:28 AM EDT (6/22)
Length of Visible Light 16h 30m
Length of Day
15h 19m
Waxing Gibbous, 99% of the Moon is Illuminated
Jun 22
Waxing Gibbous
Jun 23
Full
Jun 30
Last Quarter
Jul 8
New
Jul 15
First Quarter

Hourly Weather History & Observations

Time (EDT) Temp. Heat Index Dew Point Humidity Pressure Visibility Wind Dir Wind Speed Gust Speed Precip Events Conditions
12:51 AM 66.0 °F - 61.0 °F 84% 30.20 in 10.0 mi Calm Calm - N/A   Scattered Clouds
1:51 AM 68.0 °F - 61.0 °F 78% 30.20 in 10.0 mi South 5.8 mph - N/A   Partly Cloudy
2:51 AM 68.0 °F - 60.1 °F 76% 30.21 in 10.0 mi Variable 4.6 mph - N/A   Partly Cloudy
3:51 AM 66.9 °F - 59.0 °F 76% 30.20 in 10.0 mi South 4.6 mph - N/A   Partly Cloudy
4:51 AM 66.0 °F - 57.9 °F 75% 30.19 in 10.0 mi South 8.1 mph - N/A   Scattered Clouds
5:51 AM 66.0 °F - 57.9 °F 75% 30.20 in 10.0 mi South 4.6 mph - N/A   Scattered Clouds
6:51 AM 66.0 °F - 57.9 °F 75% 30.20 in 10.0 mi South 5.8 mph - N/A   Scattered Clouds
7:51 AM 68.0 °F - 57.9 °F 70% 30.19 in 10.0 mi SSE 6.9 mph - N/A   Mostly Cloudy
8:51 AM 69.1 °F - 57.9 °F 68% 30.20 in 10.0 mi SSE 8.1 mph - N/A   Mostly Cloudy
9:51 AM 70.0 °F - 59.0 °F 68% 30.22 in 10.0 mi South 6.9 mph - N/A   Mostly Cloudy
10:51 AM 73.0 °F - 60.1 °F 64% 30.21 in 10.0 mi South 9.2 mph - N/A   Mostly Cloudy
11:51 AM 77.0 °F - 63.0 °F 62% 30.19 in 10.0 mi SSE 5.8 mph - N/A   Scattered Clouds
12:51 PM 81.0 °F 81.9 °F 62.1 °F 52% 30.18 in 10.0 mi South 9.2 mph - N/A   Scattered Clouds
1:51 PM 82.9 °F 83.7 °F 62.1 °F 49% 30.15 in 10.0 mi SSE 12.7 mph 19.6 mph N/A   Scattered Clouds
2:51 PM 82.0 °F 82.7 °F 61.0 °F 49% 30.13 in 10.0 mi SSE 9.2 mph - N/A   Mostly Cloudy
3:51 PM 82.9 °F 83.3 °F 61.0 °F 47% 30.12 in 10.0 mi South 8.1 mph - N/A   Mostly Cloudy
4:51 PM 82.9 °F 83.3 °F 61.0 °F 47% 30.10 in 10.0 mi SSE 6.9 mph - N/A   Mostly Cloudy
5:51 PM 82.0 °F 82.7 °F 61.0 °F 49% 30.09 in 10.0 mi South 10.4 mph - N/A   Mostly Cloudy
6:51 PM 81.0 °F 81.7 °F 61.0 °F 50% 30.07 in 10.0 mi South 9.2 mph - N/A   Mostly Cloudy
7:51 PM 80.1 °F 81.2 °F 62.1 °F 54% 30.07 in 10.0 mi South 10.4 mph 17.3 mph N/A   Mostly Cloudy
8:51 PM 79.0 °F - 62.1 °F 56% 30.07 in 10.0 mi South 9.2 mph - N/A   Mostly Cloudy
9:51 PM 78.1 °F - 63.0 °F 60% 30.09 in 10.0 mi South 9.2 mph - N/A   Overcast
10:51 PM 77.0 °F - 63.0 °F 62% 30.09 in 10.0 mi South 11.5 mph - N/A   Overcast
11:51 PM 75.0 °F - 64.0 °F 69% 30.11 in 10.0 mi South 12.7 mph - N/A   Overcast